Time,TemperatureF,DewpointF,PressureIn,WindDirection,WindDirectionDegrees,WindSpeedMPH,WindSpeedGustMPH,Humidity,HourlyPrecipIn,Conditions,Clouds,dailyrainin,SolarRadiationWatts/m^2,SoftwareType,DateUTC
2013-01-18 00:02:00,57.0,16.0,-100.00,North,6,5.0,8.0,20,0.00,,,0.00,1.000000,,2013-01-18 07:02:00,
2013-01-18 00:12:00,57.0,16.0,-100.00,North,6,5.0,8.0,20,0.00,,,0.00,1.000000,,2013-01-18 07:12:00,
2013-01-18 00:33:00,55.0,18.0,-100.00,NNW,343,5.0,7.0,23,0.00,,,-99.99,1.000000,,2013-01-18 07:33:00,
2013-01-18 00:42:00,55.0,18.0,-100.00,NNW,343,5.0,7.0,23,0.00,,,-99.99,1.000000,,2013-01-18 07:42:00,
2013-01-18 00:52:00,55.0,18.0,-100.00,NNW,343,5.0,7.0,23,0.00,,,-99.99,1.000000,,2013-01-18 07:52:00,
2013-01-18 01:02:00,55.0,18.0,-100.00,NNW,343,5.0,7.0,23,0.00,,,-99.99,1.000000,,2013-01-18 08:02:00,
2013-01-18 01:11:00,55.0,18.0,-100.00,NNW,343,5.0,7.0,23,0.00,,,-99.99,1.000000,,2013-01-18 08:11:00,
2013-01-18 01:43:00,52.0,19.0,-100.00,NNW,337,5.0,9.0,27,0.00,,,0.00,1.000000,,2013-01-18 08:43:00,
2013-01-18 01:53:00,52.0,19.0,-100.00,NNW,337,5.0,9.0,27,0.00,,,0.00,1.000000,,2013-01-18 08:53:00,
2013-01-18 02:02:00,52.0,19.0,-100.00,NNW,337,5.0,9.0,27,0.00,,,0.00,1.000000,,2013-01-18 09:02:00,
2013-01-18 02:12:00,52.0,19.0,-100.00,NNW,337,5.0,9.0,27,0.00,,,0.00,1.000000,,2013-01-18 09:12:00,
2013-01-18 02:42:00,55.0,17.0,-100.00,NNW,345,8.0,12.0,22,0.00,,,0.00,1.000000,,2013-01-18 09:42:00,
2013-01-18 02:52:00,55.0,17.0,-100.00,NNW,345,8.0,12.0,22,0.00,,,0.00,1.000000,,2013-01-18 09:52:00,
2013-01-18 03:02:00,55.0,17.0,-100.00,NNW,345,8.0,12.0,22,0.00,,,0.00,1.000000,,2013-01-18 10:02:00,
2013-01-18 03:12:00,55.0,17.0,-100.00,NNW,345,8.0,12.0,22,0.00,,,0.00,1.000000,,2013-01-18 10:12:00,
2013-01-18 03:43:00,56.0,18.0,-100.00,NNW,348,9.0,14.0,22,0.00,,,0.00,1.000000,,2013-01-18 10:43:00,
2013-01-18 03:52:00,56.0,18.0,-100.00,NNW,348,9.0,14.0,22,0.00,,,0.00,1.000000,,2013-01-18 10:52:00,
2013-01-18 04:02:00,56.0,18.0,-100.00,NNW,348,9.0,14.0,22,0.00,,,0.00,1.000000,,2013-01-18 11:02:00,
2013-01-18 04:12:00,56.0,18.0,-100.00,NNW,348,9.0,14.0,22,0.00,,,0.00,1.000000,,2013-01-18 11:12:00,
2013-01-18 04:42:00,56.0,16.0,-100.00,North,7,6.0,14.0,20,0.00,,,0.00,1.000000,,2013-01-18 11:42:00,
2013-01-18 04:53:00,56.0,16.0,-100.00,North,7,6.0,14.0,20,0.00,,,0.00,1.000000,,2013-01-18 11:53:00,
2013-01-18 05:02:00,56.0,16.0,-100.00,North,7,6.0,14.0,20,0.00,,,0.00,1.000000,,2013-01-18 12:02:00,
2013-01-18 05:12:00,56.0,16.0,-100.00,North,7,6.0,14.0,20,0.00,,,0.00,1.000000,,2013-01-18 12:12:00,
2013-01-18 05:43:00,54.0,17.0,-100.00,NNW,345,5.0,13.0,23,0.00,,,0.00,1.000000,,2013-01-18 12:43:00,
2013-01-18 05:53:00,54.0,17.0,-100.00,NNW,345,5.0,13.0,23,0.00,,,0.00,1.000000,,2013-01-18 12:53:00,
2013-01-18 06:02:00,54.0,17.0,-100.00,NNW,345,5.0,13.0,23,0.00,,,0.00,1.000000,,2013-01-18 13:02:00,
2013-01-18 06:12:00,54.0,17.0,-100.00,NNW,345,5.0,13.0,23,0.00,,,0.00,1.000000,,2013-01-18 13:12:00,
2013-01-18 06:33:00,56.0,16.0,-100.00,North,10,10.0,16.0,20,0.00,,,0.00,1.000000,,2013-01-18 13:33:00,
2013-01-18 06:43:00,56.0,16.0,-100.00,North,10,10.0,16.0,20,0.00,,,0.00,1.000000,,2013-01-18 13:43:00,
2013-01-18 06:53:00,56.0,16.0,-100.00,North,10,10.0,16.0,20,0.00,,,0.00,1.000000,,2013-01-18 13:53:00,
2013-01-18 07:03:00,56.0,16.0,-100.00,North,10,10.0,16.0,20,0.00,,,0.00,1.000000,,2013-01-18 14:03:00,
2013-01-18 07:12:00,56.0,16.0,-100.00,North,10,10.0,16.0,20,0.00,,,0.00,1.000000,,2013-01-18 14:12:00,
2013-01-18 07:43:00,56.0,14.0,-100.00,NNE,18,15.0,22.0,19,0.00,,,-99.99,1.000000,,2013-01-18 14:43:00,
2013-01-18 07:53:00,56.0,14.0,-100.00,NNE,18,15.0,22.0,19,0.00,,,-99.99,1.000000,,2013-01-18 14:53:00,
2013-01-18 08:02:00,56.0,14.0,-100.00,NNE,18,15.0,22.0,19,0.00,,,-99.99,1.000000,,2013-01-18 15:02:00,
2013-01-18 08:12:00,56.0,14.0,-100.00,NNE,18,15.0,22.0,19,0.00,,,-99.99,1.000000,,2013-01-18 15:12:00,
2013-01-18 08:34:00,56.0,16.0,-100.00,NNE,14,14.0,24.0,20,0.00,,,0.00,17.000000,,2013-01-18 15:34:00,
2013-01-18 08:43:00,56.0,16.0,-100.00,NNE,14,14.0,24.0,20,0.00,,,0.00,17.000000,,2013-01-18 15:43:00,
2013-01-18 08:53:00,56.0,16.0,-100.00,NNE,14,14.0,24.0,20,0.00,,,0.00,17.000000,,2013-01-18 15:53:00,
2013-01-18 09:02:00,56.0,16.0,-100.00,NNE,14,14.0,24.0,20,0.00,,,0.00,17.000000,,2013-01-18 16:02:00,
2013-01-18 09:12:00,56.0,16.0,-100.00,NNE,14,14.0,24.0,20,0.00,,,0.00,17.000000,,2013-01-18 16:12:00,
2013-01-18 09:33:00,59.0,17.0,-100.00,NNE,20,14.0,23.0,19,0.00,,,-99.99,141.000000,,2013-01-18 16:33:00,
2013-01-18 09:43:00,59.0,17.0,-100.00,NNE,20,14.0,23.0,19,0.00,,,-99.99,141.000000,,2013-01-18 16:43:00,
2013-01-18 09:53:00,59.0,17.0,-100.00,NNE,20,14.0,23.0,19,0.00,,,-99.99,141.000000,,2013-01-18 16:53:00,
2013-01-18 10:02:00,59.0,17.0,-100.00,NNE,20,14.0,23.0,19,0.00,,,-99.99,141.000000,,2013-01-18 17:02:00,
2013-01-18 10:12:00,59.0,17.0,-100.00,NNE,20,14.0,23.0,19,0.00,,,-99.99,141.000000,,2013-01-18 17:12:00,
2013-01-18 10:34:00,62.0,17.0,-100.00,NNE,23,16.0,25.0,17,0.00,,,0.00,341.000000,,2013-01-18 17:34:00,
2013-01-18 10:43:00,62.0,17.0,-100.00,NNE,23,16.0,25.0,17,0.00,,,0.00,341.000000,,2013-01-18 17:43:00,
2013-01-18 10:53:00,62.0,17.0,-100.00,NNE,23,16.0,25.0,17,0.00,,,0.00,341.000000,,2013-01-18 17:53:00,
2013-01-18 11:03:00,62.0,17.0,-100.00,NNE,23,16.0,25.0,17,0.00,,,0.00,341.000000,,2013-01-18 18:03:00,
2013-01-18 11:12:00,62.0,17.0,-100.00,NNE,23,16.0,25.0,17,0.00,,,0.00,341.000000,,2013-01-18 18:12:00,
2013-01-18 11:33:00,65.0,19.0,-100.00,NNE,13,15.0,23.0,17,0.00,,,0.00,522.000000,,2013-01-18 18:33:00,
2013-01-18 11:43:00,65.0,19.0,-100.00,NNE,13,15.0,23.0,17,0.00,,,0.00,522.000000,,2013-01-18 18:43:00,
2013-01-18 11:53:00,65.0,19.0,-100.00,NNE,13,15.0,23.0,17,0.00,,,0.00,522.000000,,2013-01-18 18:53:00,
2013-01-18 12:02:00,65.0,19.0,-100.00,NNE,13,15.0,23.0,17,0.00,,,0.00,522.000000,,2013-01-18 19:02:00,
2013-01-18 12:12:00,65.0,19.0,-100.00,NNE,13,15.0,23.0,17,0.00,,,0.00,522.000000,,2013-01-18 19:12:00,
2013-01-18 12:33:00,68.0,20.0,-100.00,North,10,11.0,19.0,16,0.00,,,0.00,635.000000,,2013-01-18 19:33:00,
2013-01-18 12:43:00,68.0,20.0,-100.00,North,10,11.0,19.0,16,0.00,,,0.00,635.000000,,2013-01-18 19:43:00,
2013-01-18 12:53:00,68.0,20.0,-100.00,North,10,11.0,19.0,16,0.00,,,0.00,635.000000,,2013-01-18 19:53:00,
2013-01-18 13:02:00,68.0,20.0,-100.00,North,10,11.0,19.0,16,0.00,,,0.00,635.000000,,2013-01-18 20:02:00,
2013-01-18 13:12:00,68.0,20.0,-100.00,North,10,11.0,19.0,16,0.00,,,0.00,635.000000,,2013-01-18 20:12:00,
2013-01-18 13:33:00,69.0,19.0,-100.00,North,3,11.0,18.0,15,0.00,,,0.00,676.000000,,2013-01-18 20:33:00,
2013-01-18 13:43:00,69.0,19.0,-100.00,North,3,11.0,18.0,15,0.00,,,0.00,676.000000,,2013-01-18 20:43:00,
2013-01-18 13:53:00,69.0,19.0,-100.00,North,3,11.0,18.0,15,0.00,,,0.00,676.000000,,2013-01-18 20:53:00,
2013-01-18 14:02:00,69.0,19.0,-100.00,North,3,11.0,18.0,15,0.00,,,0.00,676.000000,,2013-01-18 21:02:00,
2013-01-18 14:12:00,69.0,19.0,-100.00,North,3,11.0,18.0,15,0.00,,,0.00,676.000000,,2013-01-18 21:12:00,
2013-01-18 14:43:00,71.0,21.0,-100.00,NNW,344,9.0,16.0,15,0.00,,,-99.99,652.000000,,2013-01-18 21:43:00,
2013-01-18 14:53:00,71.0,21.0,-100.00,NNW,344,9.0,16.0,15,0.00,,,-99.99,652.000000,,2013-01-18 21:53:00,
2013-01-18 15:02:00,71.0,21.0,-100.00,NNW,344,9.0,16.0,15,0.00,,,-99.99,652.000000,,2013-01-18 22:02:00,
2013-01-18 15:12:00,71.0,21.0,-100.00,NNW,344,9.0,16.0,15,0.00,,,-99.99,652.000000,,2013-01-18 22:12:00,
2013-01-18 15:43:00,73.0,21.0,-100.00,NNW,347,8.0,14.0,14,0.00,,,0.00,562.000000,,2013-01-18 22:43:00,
2013-01-18 15:53:00,73.0,21.0,-100.00,NNW,347,8.0,14.0,14,0.00,,,0.00,562.000000,,2013-01-18 22:53:00,
2013-01-18 16:02:00,73.0,21.0,-100.00,NNW,347,8.0,14.0,14,0.00,,,0.00,562.000000,,2013-01-18 23:02:00,
2013-01-18 16:12:00,73.0,21.0,-100.00,NNW,347,8.0,14.0,14,0.00,,,0.00,562.000000,,2013-01-18 23:12:00,
2013-01-18 16:33:00,73.0,21.0,-100.00,NNW,346,7.0,13.0,14,0.00,,,0.00,395.000000,,2013-01-18 23:33:00,
2013-01-18 16:43:00,73.0,21.0,-100.00,NNW,346,7.0,13.0,14,0.00,,,0.00,395.000000,,2013-01-18 23:43:00,
2013-01-18 16:53:00,73.0,21.0,-100.00,NNW,346,7.0,13.0,14,0.00,,,0.00,395.000000,,2013-01-18 23:53:00,
2013-01-18 17:02:00,73.0,21.0,-100.00,NNW,346,7.0,13.0,14,0.00,,,0.00,395.000000,,2013-01-19 00:02:00,
2013-01-18 17:12:00,73.0,21.0,-100.00,NNW,346,7.0,13.0,14,0.00,,,0.00,395.000000,,2013-01-19 00:12:00,
2013-01-18 17:43:00,70.0,22.0,-100.00,North,352,7.0,13.0,16,0.00,,,0.00,195.000000,,2013-01-19 00:43:00,
2013-01-18 17:53:00,70.0,22.0,-100.00,North,352,7.0,13.0,16,0.00,,,0.00,195.000000,,2013-01-19 00:53:00,
2013-01-18 18:02:00,70.0,22.0,-100.00,North,352,7.0,13.0,16,0.00,,,0.00,195.000000,,2013-01-19 01:02:00,
2013-01-18 18:12:00,70.0,22.0,-100.00,North,352,7.0,13.0,16,0.00,,,0.00,195.000000,,2013-01-19 01:12:00,
2013-01-18 18:43:00,66.0,21.0,-100.00,North,359,6.0,11.0,18,0.00,,,0.00,37.000000,,2013-01-19 01:43:00,
2013-01-18 18:52:00,66.0,21.0,-100.00,North,359,6.0,11.0,18,0.00,,,0.00,37.000000,,2013-01-19 01:52:00,
2013-01-18 19:02:00,66.0,21.0,-100.00,North,359,6.0,11.0,18,0.00,,,0.00,37.000000,,2013-01-19 02:02:00,
2013-01-18 19:12:00,66.0,21.0,-100.00,North,359,6.0,11.0,18,0.00,,,0.00,37.000000,,2013-01-19 02:12:00,
2013-01-18 19:33:00,64.0,20.0,-100.00,North,352,6.0,10.0,18,0.00,,,0.00,1.000000,,2013-01-19 02:33:00,
2013-01-18 19:43:00,64.0,20.0,-100.00,North,352,6.0,10.0,18,0.00,,,0.00,1.000000,,2013-01-19 02:43:00,
2013-01-18 19:53:00,64.0,20.0,-100.00,North,352,6.0,10.0,18,0.00,,,0.00,1.000000,,2013-01-19 02:53:00,
2013-01-18 20:02:00,64.0,20.0,-100.00,North,352,6.0,10.0,18,0.00,,,0.00,1.000000,,2013-01-19 03:02:00,
2013-01-18 20:12:00,64.0,20.0,-100.00,North,352,6.0,10.0,18,0.00,,,0.00,1.000000,,2013-01-19 03:12:00,
2013-01-18 20:44:00,62.0,20.0,-100.00,NNW,348,5.0,9.0,20,0.00,,,0.00,1.000000,,2013-01-19 03:44:00,
2013-01-18 20:52:00,62.0,20.0,-100.00,NNW,348,5.0,9.0,20,0.00,,,0.00,1.000000,,2013-01-19 03:52:00,
2013-01-18 21:02:00,62.0,20.0,-100.00,NNW,348,5.0,9.0,20,0.00,,,0.00,1.000000,,2013-01-19 04:02:00,
2013-01-18 21:12:00,62.0,20.0,-100.00,NNW,348,5.0,9.0,20,0.00,,,0.00,1.000000,,2013-01-19 04:12:00,
2013-01-18 21:43:00,61.0,18.0,-100.00,North,6,6.0,8.0,19,0.00,,,0.00,1.000000,,2013-01-19 04:43:00,
2013-01-18 21:53:00,61.0,18.0,-100.00,North,6,6.0,8.0,19,0.00,,,0.00,1.000000,,2013-01-19 04:53:00,
2013-01-18 22:03:00,61.0,18.0,-100.00,North,6,6.0,8.0,19,0.00,,,0.00,1.000000,,2013-01-19 05:03:00,
2013-01-18 22:12:00,61.0,18.0,-100.00,North,6,6.0,8.0,19,0.00,,,0.00,1.000000,,2013-01-19 05:12:00,
2013-01-18 22:33:00,54.0,25.0,-100.00,WSW,243,2.0,10.0,32,0.00,,,0.00,1.000000,,2013-01-19 05:33:00,
2013-01-18 22:43:00,54.0,25.0,-100.00,WSW,243,2.0,10.0,32,0.00,,,0.00,1.000000,,2013-01-19 05:43:00,
2013-01-18 22:53:00,54.0,25.0,-100.00,WSW,243,2.0,10.0,32,0.00,,,0.00,1.000000,,2013-01-19 05:53:00,
2013-01-18 23:02:00,54.0,25.0,-100.00,WSW,243,2.0,10.0,32,0.00,,,0.00,1.000000,,2013-01-19 06:02:00,
2013-01-18 23:12:00,54.0,25.0,-100.00,WSW,243,2.0,10.0,32,0.00,,,0.00,1.000000,,2013-01-19 06:12:00,
2013-01-18 23:43:00,58.0,19.0,-100.00,North,9,7.0,9.0,22,0.00,,,0.00,1.000000,,2013-01-19 06:43:00,
2013-01-18 23:53:00,58.0,19.0,-100.00,North,9,7.0,9.0,22,0.00,,,0.00,1.000000,,2013-01-19 06:53:00,